Tracking 25711 objects as of 22-May-2022
HD Live streaming from Space Station
objects crossing your sky now

COSMOS 2392 DEB

Track COSMOS 2392 DEB now!
10-day predictions


NORAD ID: 27494
Int'l Code: 2002-037H
Perigee: 1,236.1 km
Apogee: 2,045.1 km
Inclination: 63.5 °
Period: 118.9 minutes
Semi major axis: 8011 km
RCS: 0.7736 m2 (medium)
Launch date: July 25, 2002
Source: Commonwealth of Independent States (former USSR) (CIS)
Launch site: TYURATAM MISSILE AND SPACE COMPLEX (TTMTR)

Note: This is SATELLITE DEBRIS
aabbcc
Your satellite tracking list
Your tracking list is empty




NASA's NSSDC Master Catalog

Two Line Element Set (TLE):
1 27494U 02037H   22141.91919208 -.00000350  00000-0 -21241-2 0  9999
2 27494  63.4501  77.8691 0504876 331.7778  85.8827 12.10657700873882
Source of the keplerian elements: AFSPC